Flag for U.S.A. Weather past 2 weeks in Bakersfield, California, U.S.A.

Now
42 °F

Fog.


Feels Like: 42 °F
Forecast: 44 / 63 °F
Wind: No wind

Location: Meadows Field

Current Time: Jan 26, 2015 at 9:01:56 AM

Latest Report: Jan 26, 2015 at 8:03 AM


Visibility: 0 mi

Pressure: 30.05 "Hg

Humidity: 92%

Dew point: 40 °F

Location of BakersfieldLocation

Historic Weather in Bakersfield — Graph

°F

Bakersfield temperature yesterday

Maximum temperature yesterday: 55 °F (at 3:54 PM)
Minimum temperature yesterday: 40 °F (at 1:54 AM)
Average temperature yesterday: 46 °F

Past Weeks' High & Low Weather Summary

 TemperatureHumidityPressure
High66 °F (Jan 14, 2:54 PM)100% (Jan 24, 7:54 AM)30.39 "Hg (Jan 24, 7:54 AM)
Low37 °F (Jan 24, 2:54 AM)47% (Jan 14, 2:54 PM)30.02 "Hg (Jan 26, 4:54 AM)
Average49 °F85%30.22 "Hg
* Reported Jan 11 7:54 AM — Jan 26 7:54 AM, Bakersfield, Weather by CustomWeather, © 2014

Note: Actual official high and low records may vary slightly from our data, if they occured in-between our weather recording intervals... More about our weather records

Advertising

Bakersfield weather history for previous 24 hours

 ConditionsComfort  
Time TempWeatherWind HumidityBarometerVisibility
7:54 AM
Jan 26
40 °FFog.5 mph97%30.05 "Hg0 mi
6:54 AM40 °FFog.3 mph89%30.04 "Hg3 mi
5:54 AM42 °FFog.No wind85%30.03 "Hg3 mi
4:54 AM41 °FFog.3 mph86%30.02 "Hg3 mi
3:54 AM44 °FFog.3 mph85%30.04 "Hg3 mi
2:54 AM41 °FFog.3 mph89%30.06 "Hg2 mi
1:54 AM42 °FFog.No wind89%30.08 "Hg3 mi
12:54 AM42 °FFog.3 mph89%30.10 "Hg3 mi
11:54 PM
Jan 25
46 °FClear.3 mph83%30.10 "Hg4 mi
10:54 PM48 °FClear.No wind83%30.09 "Hg4 mi
9:54 PM46 °FClear.No wind83%30.09 "Hg4 mi
8:54 PM47 °FClear.5 mph83%30.09 "Hg5 mi
7:54 PM48 °FClear.No wind83%30.08 "Hg5 mi
6:54 PM49 °FClear.No wind80%30.08 "Hg5 mi
5:54 PM50 °FClear.6 mph77%30.06 "Hg5 mi
4:54 PM54 °FSunny.No wind69%30.04 "Hg5 mi
3:54 PM55 °FSunny.No wind67%30.05 "Hg5 mi
2:54 PM54 °FSunny.6 mph69%30.06 "Hg5 mi
1:54 PM52 °FSunny.6 mph75%30.06 "Hg4 mi
12:54 PM49 °FHaze.3 mph80%30.09 "Hg3 mi
11:54 AM46 °FFog.5 mph86%30.13 "Hg2 mi
10:54 AM43 °FFog.3 mph93%30.17 "Hg1 mi
9:54 AM41 °FFog.No wind96%30.18 "Hg0 mi
Weather by CustomWeather, © 2014

See weather overviewHow to use our weather pages